Change the Weather History Date:

Thursday, October 18, 2012

  Actual Average Record
Temperature  
Mean Temperature 65 °F -  
Max Temperature 75 °F 75 °F 93 °F (2005)
Min Temperature 55 °F 56 °F 48 °F (1996)
Growing Degree Days 15 (Base 50)    
Moisture  
Dew Point 32 °F    
Average Humidity 31    
Maximum Humidity 57    
Minimum Humidity 15    
Precipitation  
Precipitation 0.00 in - - ()
Sea Level Pressure  
Sea Level Pressure 29.93 in    
Wind  
Wind Speed 7 mph (North)    
Max Wind Speed 16 mph    
Max Gust Speed 26 mph    
Visibility 10 miles    
Events      
Averages and records for this station are not official NWS values.
T = Trace of Precipitation, MM = Missing Value Source: NWS Daily Summary

Daily Weather History Graph

Daily Weather History Graph

Search for Another Location

Airport or City:

Trip Planner

Search our weather history database for the weather conditions in past years. The results will help you decide how hot, cold, wet, or windy it might be!

Date:

Astronomy

Oct. 18, 2012 Rise Set
Actual Time 7:34 AM CDT 6:50 PM CDT
Civil Twilight 7:09 AM CDT 7:15 PM CDT
Nautical Twilight 6:40 AM CDT 7:43 PM CDT
Astronomical Twilight 6:11 AM CDT 8:12 PM CDT
Moon 11:06 AM CDT (10/18) 9:36 PM CDT (10/18)
Length of Visible Light 12h 05m
Length of Day
11h 15m
Waxing Crescent, 14% of the Moon is Illuminated
Oct 18
Waxing Crescent
Oct 21
First Quarter
Oct 29
Full
Nov 6
Last Quarter
Nov 13
New

Hourly Weather History & Observations

Time (CDT) Temp. Dew Point Humidity Pressure Visibility Wind Dir Wind Speed Gust Speed Precip Events Conditions
12:53 AM 66.9 °F 44.1 °F 44% 29.78 in 10.0 mi North 8.1 mph - N/A   Clear
1:53 AM 68.0 °F 33.1 °F 27% 29.82 in 10.0 mi NNE 16.1 mph 26.5 mph N/A   Clear
2:53 AM 66.0 °F 30.0 °F 26% 29.83 in 10.0 mi NNE 9.2 mph - N/A   Clear
3:53 AM 64.0 °F 28.9 °F 27% 29.85 in 10.0 mi NNE 9.2 mph - N/A   Clear
4:53 AM 61.0 °F 30.0 °F 31% 29.87 in 10.0 mi North 4.6 mph - N/A   Clear
5:53 AM 59.0 °F 32.0 °F 36% 29.89 in 10.0 mi North 5.8 mph - N/A   Clear
6:53 AM 57.0 °F 33.1 °F 40% 29.91 in 10.0 mi Calm Calm - N/A   Clear
7:53 AM 55.0 °F 37.0 °F 51% 29.94 in 10.0 mi North 3.5 mph - N/A   Partly Cloudy
8:53 AM 59.0 °F 39.0 °F 48% 29.96 in 10.0 mi NNW 3.5 mph - N/A   Partly Cloudy
9:53 AM 66.9 °F 36.0 °F 32% 29.99 in 10.0 mi North 3.5 mph - N/A   Partly Cloudy
10:53 AM 70.0 °F 30.0 °F 23% 30.00 in 10.0 mi ENE 6.9 mph - N/A   Partly Cloudy
11:53 AM 73.0 °F 26.1 °F 17% 30.00 in 10.0 mi ENE 9.2 mph - N/A   Partly Cloudy
12:53 PM 73.0 °F 23.0 °F 15% 29.99 in 10.0 mi North 6.9 mph - N/A   Partly Cloudy
1:53 PM 73.9 °F 23.0 °F 15% 29.96 in 10.0 mi Variable 5.8 mph - N/A   Partly Cloudy
2:53 PM 75.0 °F 27.0 °F 17% 29.94 in 10.0 mi North 10.4 mph 17.3 mph N/A   Partly Cloudy
3:53 PM 73.9 °F 28.0 °F 18% 29.94 in 10.0 mi NW 8.1 mph - N/A   Partly Cloudy
4:53 PM 73.9 °F 27.0 °F 18% 29.94 in 10.0 mi North 5.8 mph - N/A   Clear
5:53 PM 73.0 °F 27.0 °F 18% 29.93 in 10.0 mi North 6.9 mph - N/A   Clear
6:53 PM 69.1 °F 30.0 °F 23% 29.94 in 10.0 mi North 3.5 mph - N/A   Clear
7:53 PM 66.0 °F 35.1 °F 32% 29.96 in 10.0 mi North 4.6 mph - N/A   Clear
8:53 PM 62.1 °F 37.9 °F 41% 29.98 in 10.0 mi North 3.5 mph - N/A   Clear
9:53 PM 61.0 °F 37.0 °F 41% 29.98 in 10.0 mi Calm Calm - N/A   Clear
10:53 PM 57.0 °F 42.1 °F 57% 29.98 in 10.0 mi Calm Calm - N/A   Clear
11:53 PM 57.9 °F 41.0 °F 53% 29.98 in 10.0 mi Calm Calm - N/A   Clear